{"data":{"norad_id":42812,"intl_designator":"2017-039K","name":"IRIDIUM 121","alt_names":[],"object_type":"PAYLOAD","status":"ACTIVE","operator":null,"country":"US","launch_date":"2017-06-25","launch_site_code":"AFWTR","launch_vehicle":null,"mission":null,"orbit_class":"UNKNOWN","rcs_meters":null,"size_class":null,"mass_kg":null,"dimensions":null,"purposes":["comms"],"wikipedia_slug":null,"has_3d_model":false,"image_url":null,"decayed_at":null,"tle_current":{"epoch":"2026-09-19T21:55:11.025120Z","epoch_age_seconds":66207,"freshness":"FRESH","line1":"1 42812U 17039K   26262.91332205  .00000138  00000+0  42119-4 0  9992","line2":"2 42812  86.3974 314.0981 0002166  94.6833 265.4610 14.34217832483408","mean_motion":14.34217832,"eccentricity":0.0002166,"inclination_deg":86.3974,"raan_deg":314.0981,"arg_perigee_deg":94.6833,"mean_anomaly_deg":265.461,"bstar":4.2119e-5,"rev_number":48340,"period_min":100.40315828398,"perigee_km":776.116934482,"apogee_km":779.21682872351,"semimajor_km":7155.8038816028,"source":"CELESTRAK","updated_at":"2026-09-20T09:00:36.323874Z"}}}